Probability
0 0 0 0 0 0 0 0 0 0 0 0 0 0 0 0 0 0 0 0 0 0 0 0 0 0 0 0 0 0 0 0 0 0 0 0 1 3 3 1 0 0 0
0 0 0 0 0 0 0 0 0 0 0 0 0 0 0 0 0 0 0 0 0 0 0 0 0 0 0 0 0 0 0 1 1 0 0 0 2 3 3 2 1 0 0
0 0 0 0 0 0 0 0 0 0 0 0 0 0 0 0 0 0 0 0 0 1 1 1 1 1 0 0 0 0 0 1 2 1 0 0 1 2 2 2 1 0 0
0 0 0 0 0 0 0 0 0 0 0 0 0 0 0 0 0 0 0 0 0 1 2 3 4 3 1 0 0 0 0 1 2 1 0 0 1 1 1 1 1 0 0
1 0 0 0 0 0 0 0 0 0 0 0 0 0 0 0 0 0 0 0 0 0 2 4 6 5 2 1 0 1 0 1 2 2 1 1 1 1 0 0 0 0 0
2 1 0 0 0 0 0 0 0 0 0 0 0 0 0 0 0 0 0 0 0 0 1 3 4 4 2 1 1 2 1 1 2 3 3 2 2 1 1 0 0 0 0
2 1 0 0 0 0 0 0 0 0 0 0 0 0 0 0 0 0 0 0 0 0 0 1 1 1 1 1 2 2 2 1 2 3 3 3 2 2 2 1 0 0 0
2 1 0 0 0 0 0 0 0 0 0 0 0 0 0 0 0 0 0 0 0 0 0 0 0 0 0 1 1 2 2 3 2 2 2 2 2 2 1 1 0 0 0
3 2 1 0 0 0 0 0 0 0 0 0 0 0 0 0 0 0 0 0 0 0 0 0 0 0 0 0 1 2 3 4 4 3 2 2 1 1 1 1 1 0 0
3 2 1 0 0 0 0 0 0 0 0 0 0 0 0 0 0 0 0 0 0 0 0 0 0 0 0 0 1 2 3 5 7 6 5 3 2 2 2 2 1 0 0
2 2 1 0 0 0 0 0 0 0 0 0 0 0 0 0 0 0 0 0 0 0 0 0 0 0 0 0 1 2 4 6 8 9 9 7 5 4 3 2 1 0 0
1 1 0 0 0 0 0 0 0 0 0 0 0 0 0 0 0 0 0 0 0 0 0 0 0 0 0 1 2 3 5 6 7 8 10 10 8 5 3 1 0 0 0
1 0 0 0 0 0 0 0 0 0 0 0 0 0 0 0 0 0 0 0 0 0 0 0 0 0 1 2 3 4 5 6 6 6 7 7 6 4 2 1 0 0 0
2 1 0 0 0 0 0 0 0 0 0 0 0 0 0 0 0 0 0 0 0 0 0 0 0 0 1 2 3 3 5 5 4 3 2 2 2 1 1 0 0 0 1
2 1 0 0 0 0 0 0 0 0 0 0 0 0 0 0 0 0 0 0 0 0 0 0 0 0 1 1 1 1 2 2 1 1 0 0 0 0 0 0 0 1 2
3 2 1 0 0 0 0 0 0 0 0 0 0 0 0 0 0 0 0 0 0 0 0 0 0 0 0 0 0 0 0 0 0 0 0 0 0 0 0 0 0 1 2
3 2 1 0 0 0 0 0 0 0 0 0 0 0 0 0 0 0 0 0 0 0 0 0 0 0 0 0 0 0 0 0 0 0 0 0 0 0 0 0 0 0 1
3 3 1 0 0 0 0 0 0 0 0 0 0 0 0 0 0 0 0 0 0 0 0 0 0 0 0 0 0 0 0 0 0 0 0 0 0 0 0 0 0 0 0
3 3 2 1 0 0 0 0 0 0 0 0 0 0 0 0 0 0 0 0 0 0 0 0 0 0 0 0 0 0 0 0 0 0 0 0 0 0 0 0 0 0 0
3 3 2 1 0 0 0 0 0 0 0 0 0 0 0 0 0 0 0 0 0 0 0 0 0 0 0 0 0 0 0 0 0 0 0 0 0 0 0 0 0 0 0
3 3 3 1 0 0 0 0 0 0 0 0 0 0 0 0 0 0 0 0 0 0 0 0 0 0 0 0 0 0 0 0 0 0 0 0 1 1 1 0 0 0 0
4 4 4 2 1 0 0 0 0 0 0 0 0 0 0 0 0 0 0 0 0 0 0 0 0 0 0 0 0 0 0 0 0 0 0 0 1 2 1 0 0 0 0
6 6 6 4 2 1 0 0 0 0 0 0 0 0 0 0 0 0 0 0 0 0 0 0 0 0 0 0 0 0 0 0 0 0 0 1 2 2 1 0 0 0 0
6 6 6 5 3 1 1 0 0 0 0 0 0 0 0 0 0 0 0 0 0 0 0 0 0 0 0 0 0 0 0 0 0 0 1 1 2 1 0 0 0 0 0
4 4 4 4 3 3 2 1 0 0 0 0 0 0 0 0 0 0 0 0 0 0 0 0 0 0 0 0 0 0 0 0 0 1 2 2 2 1 0 0 0 0 0
3 3 3 3 3 3 3 2 1 0 0 0 0 0 0 0 0 0 0 0 0 0 0 0 0 0 0 0 0 0 0 0 1 2 3 3 1 0 0 0 0 0 0
Wind_Speed
2 1 1 1 2 1 2 2 2 3 4 4 4 4 4 4 4 4 3 7 7 7 7 6 5 5 5 6 6 6 6 7 8 8 9 10 10 9 8 8 8 7 7
1 2 2 2 2 2 2 2 2 3 3 3 4 4 4 3 3 3 3 4 6 6 6 5 5 6 6 6 6 7 7 7 8 9 9 9 10 9 9 9 8 8 7
2 2 3 2 2 2 3 3 3 3 2 2 3 3 3 3 2 2 2 2 2 4 5 6 5 6 6 6 7 8 8 8 8 8 9 9 9 9 9 9 9 8 8
4 3 3 2 3 2 2 2 2 2 2 2 2 2 2 2 2 2 2 2 2 2 3 6 6 6 6 6 6 7 8 8 8 8 9 9 9 8 8 8 9 9 10
4 3 2 2 3 2 2 2 2 2 2 2 1 1 2 2 2 2 2 2 2 2 2 4 6 6 6 6 6 7 7 7 8 8 8 9 9 9 9 8 9 10 10
4 3 2 3 3 2 2 2 3 2 1 1 2 2 1 1 2 2 2 2 2 3 3 3 3 3 6 6 6 6 6 7 7 8 8 8 8 8 9 9 10 10 11
3 3 2 2 3 2 2 2 2 2 1 1 1 1 1 1 2 1 2 2 2 2 2 3 2 2 3 5 5 5 5 6 6 7 7 7 7 8 8 9 9 9 10
3 3 3 2 2 2 2 2 2 2 2 2 1 1 1 2 2 1 1 2 2 2 2 2 2 3 3 2 3 4 4 5 6 6 7 7 7 7 7 7 8 9 9
3 3 2 2 2 1 1 1 1 1 1 2 2 1 1 0 2 2 1 1 2 2 1 1 2 3 3 3 3 3 4 4 5 6 7 7 7 7 7 7 7 7 8
2 2 2 2 1 1 1 1 1 1 1 1 2 1 1 1 1 1 2 1 1 1 1 1 1 2 3 3 3 4 4 4 4 6 6 7 7 7 7 6 6 7 7
1 1 1 1 1 1 1 1 1 1 1 1 1 1 2 1 1 1 1 2 2 1 1 1 1 2 2 2 2 3 5 4 4 5 6 6 6 6 6 6 6 6 6
1 1 1 0 0 0 1 1 0 0 0 1 1 1 1 1 1 0 1 1 1 2 1 1 1 1 1 2 3 4 5 5 4 4 4 5 5 5 6 6 6 6 6
1 1 1 0 0 0 1 0 0 0 1 0 1 1 1 1 1 0 0 1 1 2 1 1 1 1 2 2 2 4 4 5 4 4 4 4 4 5 5 5 6 5 6
2 2 2 1 1 1 1 0 0 0 0 1 1 0 0 1 1 0 0 0 1 2 1 1 1 1 2 2 3 4 3 4 4 4 4 4 4 4 4 4 5 5 5
1 2 2 2 1 2 1 1 0 1 1 1 0 0 0 1 1 0 0 1 1 1 2 2 1 1 1 2 3 3 3 4 5 4 4 4 5 4 4 4 4 4 4
2 2 2 2 2 2 2 1 0 1 1 1 0 1 1 1 0 1 1 1 1 2 2 2 1 1 1 2 4 3 3 6 6 5 5 5 6 6 5 4 4 4 4
1 2 2 2 2 2 2 2 2 1 1 2 1 1 1 1 1 1 1 1 1 1 2 2 1 1 1 1 1 1 3 3 3 6 6 6 6 6 6 6 5 5 5
1 1 1 1 1 2 2 2 2 2 2 2 2 2 2 2 1 1 1 1 1 2 1 2 2 1 2 2 2 2 2 3 3 5 7 8 7 7 7 7 6 6 6
1 1 1 1 2 2 1 2 3 3 3 3 3 2 2 2 1 1 1 1 1 1 1 1 3 2 1 2 1 1 2 1 2 4 6 7 7 7 7 8 7 6 6
2 2 2 2 2 1 1 1 1 2 2 2 2 2 2 2 2 2 2 2 1 1 1 1 2 2 1 1 2 1 1 1 2 2 3 4 5 7 8 8 8 8 7
2 2 1 1 1 2 2 1 1 2 2 2 2 2 2 1 1 1 1 1 1 1 1 1 2 1 1 1 2 2 2 2 2 2 2 2 3 3 4 6 8 9 8
2 1 2 2 2 2 2 2 1 2 2 2 2 2 2 2 0 1 2 2 2 2 2 2 2 2 3 2 2 2 2 1 2 2 3 2 3 3 4 4 6 9 9
2 2 2 2 2 1 1 2 3 2 3 2 2 2 2 1 1 1 2 3 3 4 3 2 3 3 3 3 3 3 3 3 3 3 2 2 2 3 3 4 8 9 9
1 2 2 2 2 1 1 2 3 3 3 2 2 2 1 1 0 0 1 2 3 3 4 3 2 3 3 3 4 5 4 3 2 1 3 2 2 3 2 3 7 9 9
1 1 1 1 1 1 2 2 2 2 3 3 2 2 1 1 1 1 1 2 3 3 3 4 4 5 5 5 3 1 2 2 2 2 2 2 2 1 2 2 4 7 9
1 1 1 1 1 1 1 2 2 1 2 2 2 1 1 1 2 2 1 2 3 3 2 3 4 4 4 4 4 3 3 3 2 2 2 2 2 1 1 2 2 3 4
Wind_Direction
55 66 77 56 58 51 42 21 40 47 37 33 37 46 47 58 76 81 76 70 75 73 72 78 83 86 88 94 91 88 90 90 86 80 78 85 87 86 83 81 83 85 87
58 57 60 58 46 35 32 39 47 50 48 36 31 34 33 39 62 87 102 83 74 74 74 78 84 87 89 89 86 84 88 95 93 91 86 83 83 81 78 79 77 78 82
57 55 55 53 45 38 37 33 37 36 45 38 34 32 32 30 34 63 103 112 95 82 85 85 88 91 91 87 87 87 87 88 92 92 88 86 83 81 78 77 76 77 79
62 55 59 47 36 38 41 41 42 34 31 31 22 21 24 25 17 26 73 96 102 98 97 101 95 94 92 91 91 91 91 90 92 91 90 89 86 84 83 82 80 81 82
66 60 52 49 42 39 39 34 44 45 31 25 14 27 25 26 5 28 44 58 75 98 109 114 106 97 94 91 95 97 95 95 96 97 96 94 91 88 87 85 83 85 85
70 72 58 49 46 49 42 32 42 31 36 19 8 27 7 19 38 25 23 34 45 83 96 106 119 104 98 94 93 99 103 102 104 106 105 101 97 95 91 89 88 88 88
68 82 68 53 48 46 40 33 39 21 3 360 32 6 340 14 82 39 30 24 28 55 86 113 123 117 109 101 96 100 111 112 115 117 114 111 106 101 98 95 94 92 92
53 67 71 73 69 60 39 24 37 21 346 1 22 23 3 356 356 357 61 33 19 22 42 74 94 106 113 105 92 100 108 118 124 127 124 119 113 110 106 102 101 100 99
61 57 60 69 69 70 65 40 80 67 345 339 14 58 78 293 321 337 48 58 32 13 5 35 81 91 100 102 99 81 90 107 124 129 128 127 124 118 113 110 108 105 103
88 73 63 71 71 79 72 356 55 19 41 340 341 3 34 121 128 332 338 8 35 17 359 19 63 86 91 93 101 93 96 104 124 130 133 135 133 129 124 122 117 111 107
101 99 80 67 62 78 76 59 48 13 9 360 336 336 352 350 338 133 304 323 347 344 335 341 80 79 99 105 115 112 107 111 122 136 138 139 142 145 143 139 131 124 120
139 117 102 113 107 88 67 82 99 357 346 337 335 341 336 344 310 271 270 294 298 287 287 258 130 126 123 108 108 105 122 120 115 125 133 138 146 150 151 150 143 137 133
164 184 144 164 125 107 94 77 117 214 247 281 276 289 333 326 313 297 295 292 294 271 262 252 182 147 137 119 118 124 134 132 125 116 127 132 134 138 146 151 146 144 139
172 171 171 183 148 96 58 31 278 241 222 247 269 257 306 303 317 45 155 148 312 308 296 264 238 169 138 134 151 143 150 150 140 138 138 147 143 138 142 154 156 156 155
188 176 186 188 170 148 154 101 7 321 338 287 277 238 243 276 301 288 249 178 177 266 282 258 271 207 148 139 164 162 157 167 163 162 159 161 161 158 157 160 161 158 157
207 194 203 196 184 169 162 141 151 337 327 298 299 306 287 272 274 252 256 265 202 201 247 258 230 217 165 162 177 180 172 167 176 179 180 176 174 173 172 170 173 174 166
211 209 219 201 185 179 170 167 187 205 242 266 256 247 262 265 258 261 265 263 269 236 249 278 267 229 150 161 164 191 170 164 181 188 190 188 184 185 185 185 187 189 182
203 217 222 214 209 200 187 187 205 213 227 253 259 248 244 247 246 261 251 242 244 247 226 266 276 253 211 182 179 205 191 186 187 192 193 194 195 195 196 195 195 195 191
206 213 222 226 226 228 211 206 204 214 220 233 239 242 247 235 239 258 246 247 247 257 232 252 269 258 227 183 175 221 233 218 207 189 192 199 202 202 201 198 196 195 195
211 217 217 229 226 215 219 244 241 238 234 246 245 241 237 230 220 238 240 242 246 247 250 261 268 258 240 204 157 194 244 249 236 202 189 193 198 203 205 199 196 200 201
221 222 224 230 231 226 237 254 243 261 259 260 267 256 233 229 252 262 262 231 231 231 237 247 262 267 246 201 203 202 213 232 246 209 177 202 191 195 205 207 203 205 204
226 224 222 228 247 269 293 308 317 250 251 252 262 262 245 207 260 323 329 289 232 218 223 222 240 250 247 221 205 202 202 198 246 226 165 209 183 196 206 203 201 198 203
234 243 246 231 227 264 298 309 310 280 252 242 246 257 271 250 188 244 283 286 277 260 242 219 225 239 246 223 199 206 211 205 221 217 160 220 203 205 210 205 194 191 195
238 229 245 235 206 227 296 310 302 277 271 255 245 243 240 222 121 80 306 295 279 262 242 239 243 256 256 238 204 199 205 216 234 203 152 196 209 210 210 202 194 189 194
252 237 253 249 210 233 303 309 317 269 274 271 260 253 252 206 355 41 280 280 279 276 263 257 253 264 276 270 242 182 184 178 216 222 189 178 204 199 207 212 201 197 198
246 250 262 259 229 206 307 304 301 253 273 280 283 287 288 340 15 22 282 281 280 281 297 294 278 274 273 279 259 211 194 193 191 220 212 176 189 159 241 225 198 196 200